EDT,Max TemperatureF,Mean TemperatureF,Min TemperatureF,Max Dew PointF,MeanDew PointF,Min DewpointF,Max Humidity, Mean Humidity, Min Humidity, Max Sea Level PressureIn, Mean Sea Level PressureIn, Min Sea Level PressureIn, Max VisibilityMiles, Mean VisibilityMiles, Min VisibilityMiles, Max Wind SpeedMPH, Mean Wind SpeedMPH, Max Gust SpeedMPH,PrecipitationIn, CloudCover, Events, WindDirDegrees
2013-6-1,87,77,66,66,64,61,90,68,45,30.08,29.98,29.86,10,9,2,13,5,22,0.18,2,Rain,190
2013-6-2,78,71,64,66,63,59,93,76,58,29.93,29.88,29.83,10,10,10,15,6,21,0.09,4,Rain,202
2013-6-3,70,62,54,63,60,52,93,77,61,30.06,29.95,29.89,10,9,4,12,4,15,0.01,7,Rain,345
2013-6-4,72,58,44,51,45,41,93,65,37,30.18,30.13,30.07,10,10,10,12,4,16,0.00,0,,11
2013-6-5,84,67,50,63,55,47,93,68,43,30.14,30.04,29.94,10,10,7,14,4,18,0.01,2,Rain-Thunderstorm,143
2013-6-6,72,68,64,65,63,59,100,83,66,29.97,29.86,29.77,10,9,2,15,5,18,0.42,8,Rain,146
2013-6-7,66,64,61,65,62,56,100,89,78,29.87,29.80,29.75,10,5,0,9,4,14,0.25,8,Fog-Rain,342
2013-6-8,72,65,57,59,55,53,93,75,57,30.14,29.99,29.88,10,10,5,7,1,10,0.00,7,,329
2013-6-9,84,71,58,64,60,57,97,71,45,30.17,30.10,30.02,10,9,5,13,4,17,T,3,,116
2013-6-10,80,72,64,67,64,61,93,78,62,30.04,29.89,29.82,10,9,2,15,6,24,0.14,6,Rain,185
2013-6-11,77,70,63,64,62,59,93,79,64,29.93,29.90,29.85,10,9,2,12,5,16,0.01,6,Rain,222
2013-6-12,85,76,67,71,66,62,87,71,55,29.94,29.89,29.76,10,10,6,18,6,28,0.08,3,Rain,218
2013-6-13,74,68,61,70,63,57,93,86,78,29.81,29.70,29.60,10,8,1,20,5,31,1.21,7,Rain,237
2013-6-14,73,65,56,59,56,53,93,73,53,30.08,29.97,29.83,10,10,9,15,2,20,0.00,6,,333
2013-6-15,78,65,52,58,52,46,100,68,35,30.16,30.10,30.04,10,7,0,8,2,15,0.00,1,Fog,237
2013-6-16,75,69,62,64,62,57,93,81,68,30.04,30.00,29.97,10,10,8,16,5,24,0.05,7,Rain,211
2013-6-17,81,74,67,67,64,62,87,71,54,30.03,29.98,29.92,10,9,2,8,3,12,0.02,5,Rain,215
2013-6-18,76,70,64,67,64,61,93,79,64,29.95,29.91,29.87,10,8,2,10,2,23,0.07,4,Rain,215
2013-6-19,78,69,59,63,58,52,90,69,47,30.16,30.06,29.96,10,10,10,6,4,7,0.00,5,,355
2013-6-20,83,69,54,60,55,52,93,65,36,30.25,30.21,30.16,10,10,5,8,1,13,0.00,0,,140
2013-6-21,86,72,57,62,57,52,93,63,32,30.28,30.24,30.18,10,8,2,10,1,14,0.00,0,,163
2013-6-22,87,74,61,66,63,60,93,68,43,30.24,30.17,30.10,10,10,5,9,2,14,0.00,0,,209
2013-6-23,88,77,65,67,64,62,87,65,43,30.19,30.14,30.08,10,10,9,9,3,13,0.00,1,,229
2013-6-24,85,75,65,69,65,59,93,72,51,30.24,30.14,30.04,10,8,0,21,3,31,0.43,2,Fog-Rain-Thunderstorm,183
2013-6-25,87,78,69,68,66,60,90,69,48,30.12,30.03,29.94,10,10,8,17,6,30,T,2,,202
2013-6-26,80,73,66,70,67,64,97,80,62,30.00,29.94,29.84,10,8,1,13,4,21,0.70,6,Rain,166
2013-6-27,73,71,68,68,67,65,97,88,79,29.83,29.76,29.69,10,6,0,12,4,16,0.77,7,Fog-Rain,213
2013-6-28,79,72,64,70,66,60,97,83,69,29.68,29.63,29.56,10,8,2,20,5,32,0.33,6,Rain,205
2013-6-29,79,71,62,67,62,60,93,74,54,29.71,29.64,29.59,10,10,10,12,4,17,0.01,4,Rain,198
2013-6-30,87,75,62,65,63,57,93,65,37,29.83,29.77,29.71,10,10,4,12,3,17,0.00,1,Fog,10